Location: Pl�tzky
(52.0521°N, 11.8020°E)
Time: 18:23:06
(UTC+00:00)

NOSS 2-3 (D) - Pass Details

Date: 22 November 2019
Orbit: 597 x 1615 km, 63.4° (Epoch: 30 November)

Event Time Altitude Azimuth Distance (km) Brightness Sun altitude
Rises 16:40:36 0° 218° (SW) 2,865 7.9 -13.1°
Reaches altitude 10° 16:42:42 10° 216° (SW) 2,010 7.0 -13.4°
Maximum altitude 16:47:08 75° 132° (SE) 729 3.8 -14.0°
Enters shadow 16:51:01 19° 49° (NE) 1,829 5.4 -14.6°
